Location: Gleizolles
(44.4833°N, 6.7667°E)
Time: 22:11:39
(UTC+00:00)

Cosmos 2322 Rocket - Pass Details

Date: 09 April 2020
Orbit: 834 x 849 km, 71.0° (Epoch: 25 May)

Event Time Altitude Azimuth Distance (km) Brightness Sun altitude
Rises 23:19:59 0° 332° (NNW) 3,401 6.2 -37.4°
Reaches altitude 10° 23:22:27 10° 330° (NNW) 2,461 5.2 -37.4°
Enters shadow 23:24:50 26° 324° (NW) 1,598 4.0 -37.4°
